[[{"header":{"parameterUnit":"m.s-1","parameterCategory":1,"la1":30.2991,"la2":30.254,"lo1":-89.0895,"lo2":-89.0444,"dy":0.0017,"dx":0.0017,"nx":28,"ny":28,"refTime":"2026-01-10T09:00:00:Z","depth":0,"parameterNumber":2,"parameterNumberName":"U-component_of_WINDS"},"data":[0,0,0,0,0,0,0,0,0,0,0,0,0,0,0,0,0,0,0,0,0,0,0,0,0,0,0,0,0,0,0,0,0,0,0,0,0,0,0,0,0,0,0,0,0,0,0,0,0,0,0,0,0,0,0,0,0,0,-0.7839,-0.784,0,-0.7931,-0.7932,-0.7933,-0.7931,-0.7929,-0.7928,-0.7927,-0.8024,-0.8028,-0.8031,0,0,0,0,0,0,0,0,0,0,0,0,0,-0.7662,-0.7665,-0.7838,-0.784,-0.7841,-0.7931,-0.7932,-0.7933,-0.7931,-0.7929,-0.7928,-0.7926,-0.8023,-0.8027,-0.8032,0,0,0,0,0,0,0,0,0,0,0,0,0,-0.7745,-0.7666,-0.7838,-0.785,-0.7852,-0.793,-0.7932,-0.7933,-0.7931,-0.7929,-0.7927,-0.7926,-0.8021,-0.8027,-0.8032,-0.8105,0,0,-0.8049,-0.8052,0,0,0,0,0,0,0,0,-0.774,-0.7751,-0.7847,-0.785,-0.7852,-0.7917,-0.7905,-0.7991,-0.7932,-0.7901,-0.7927,-0.7925,-0.799,-0.7998,-0.802,-0.8109,-0.8114,-0.805,-0.8053,-0.8056,-0.8057,0,0,0,0,0,0,0,-0.7734,-0.7747,-0.7875,-0.7849,-0.7852,-0.7852,-0.7861,-0.7921,-0.7955,-0.7904,-0.7904,-0.7915,-0.7991,-0.8014,-0.8022,-0.8115,-0.805,-0.8055,-0.8058,-0.806,-0.8268,-0.827,0,0,0,0,0,0,-0.7726,-0.7743,-0.7872,-0.7878,-0.779,-0.7856,-0.7867,-0.7898,-0.7955,-0.7961,-0.7916,-0.7914,-0.8006,-0.8015,-0.8025,-0.8114,-0.8056,-0.8061,-0.8064,-0.8266,-0.8269,-0.8271,0,0,0,0,0,0,-0.7722,-0.7737,-0.7868,-0.781,-0.7827,-0.7861,-0.7896,-0.7901,-0.7924,-0.7964,-0.797,-0.7934,-0.8004,-0.8017,-0.8085,-0.8118,-0.8064,-0.8069,-0.8264,-0.8267,-0.827,-0.8292,0,0,0,0,0,0,-0.7717,-0.7736,-0.7764,-0.7811,-0.783,-0.7926,-0.7898,-0.7904,-0.7934,-0.7932,-0.7982,-0.7989,-0.8004,-0.8076,-0.809,-0.8124,-0.8073,-0.8261,-0.8265,-0.8269,-0.8289,-0.8296,-0.8302,0,0,0,0,0,-0.7711,-0.7767,-0.7765,-0.7781,-0.7865,-0.7928,-0.7939,-0.7955,-0.7936,-0.7965,-0.799,-0.7987,-0.8111,-0.8083,-0.8099,-0.8135,-0.8259,-0.8264,-0.8269,-0.8286,-0.8295,-0.8302,0,0,0,0,0,0,-0.7725,-0.7774,-0.7772,-0.7845,-0.7882,-0.7927,-0.7964,-0.7964,-0.8007,-0.8004,-0.8023,-0.8034,-0.8101,-0.8125,-0.8093,-0.8208,-0.8183,-0.8191,-0.8191,-0.8199,-0.8205,-0.8199,-0.8078,0,0,0,0,0,-0.7736,-0.7782,-0.7823,-0.7883,-0.7902,-0.793,-0.7958,-0.7966,-0.8006,-0.8022,-0.8052,-0.8091,-0.8139,-0.817,-0.8216,-0.8291,-0.8302,-0.8324,-0.833,-0.8336,-0.8343,-0.8384,-0.8394,-0.8287,-0.8287,-0.8287,0,0,-0.7761,-0.7793,-0.7821,-0.7887,-0.7917,-0.7965,-0.7943,-0.7995,-0.8031,-0.803,-0.8095,-0.8118,-0.8163,-0.8235,-0.8268,-0.8256,-0.8375,-0.8342,-0.8346,-0.835,-0.839,-0.84,-0.8409,-0.829,-0.829,-0.8289,0,0,-0.783,-0.7859,-0.7912,-0.7942,-0.7987,-0.8004,-0.8017,-0.8062,-0.8077,-0.8143,-0.8143,-0.8186,-0.8268,-0.8299,-0.8326,-0.8405,-0.8404,-0.8419,-0.8454,-0.8494,-0.8503,-0.851,-0.8539,-0.8549,-0.8426,-0.8426,-0.8426,0,-0.7855,-0.7927,-0.794,-0.7992,-0.8021,-0.8021,-0.8075,-0.8104,-0.8162,-0.8182,-0.8168,-0.827,-0.83,-0.8378,-0.8397,-0.8419,-0.8434,-0.8415,-0.85,-0.8508,-0.8515,-0.8543,-0.8554,-0.8428,-0.8428,-0.8428,-0.8427,0,-0.7956,-0.8005,-0.8043,-0.8098,-0.8131,-0.8184,-0.8206,-0.8237,-0.8242,-0.8262,-0.8328,-0.8364,-0.8417,-0.8436,-0.8442,-0.8515,-0.8507,-0.8496,-0.8472,-0.8527,-0.8553,-0.8564,-0.843,-0.843,-0.8429,-0.8429,0,0,-0.8039,-0.8098,-0.8112,-0.8137,-0.8185,-0.8224,-0.8276,-0.8327,-0.8354,-0.8393,-0.8438,-0.8506,-0.8496,-0.8527,-0.8536,-0.8571,-0.8631,-0.8556,-0.8558,-0.857,-0.8715,-0.8723,-0.8735,-0.863,-0.8632,-0.8634,-0.8711,0,-0.8114,-0.8207,-0.822,-0.8302,-0.8348,-0.8347,-0.8393,-0.8427,-0.8446,-0.8488,-0.8509,-0.8557,-0.854,-0.8558,-0.8593,-0.8617,-0.8661,-0.8611,-0.8673,-0.8675,-0.8663,-0.8749,-0.8758,-0.883,-0.8721,-0.8723,-0.8724,0,-0.8215,-0.8255,-0.8342,-0.8383,-0.8402,-0.8443,-0.849,-0.853,-0.8569,-0.858,-0.8613,-0.8617,-0.8672,-0.8643,-0.8719,-0.8684,-0.871,-0.8725,-0.8729,-0.8736,-0.8704,-0.876,-0.8853,-0.8864,-0.8741,-0.8739,-0.8738,0,-0.8268,-0.8344,-0.8405,-0.8426,-0.8475,-0.8504,-0.8526,-0.8562,-0.8592,-0.8633,-0.8652,-0.8699,-0.8725,-0.8761,-0.8778,-0.8756,-0.8853,-0.8826,-0.8864,-0.8864,-0.8886,-0.8885,-0.8986,-0.8901,-0.8901,-0.89,-0.89,0,-0.8351,-0.8404,-0.8429,-0.8468,-0.8527,-0.854,-0.8599,-0.862,-0.8652,-0.8695,-0.8696,-0.8736,-0.8756,-0.8798,-0.8812,-0.8872,-0.8884,-0.8895,-0.8898,-0.8896,-0.8894,-0.8914,-0.891,-0.8903,-0.8903,-0.8902,-0.8901,0,-0.8421,-0.844,-0.8507,-0.8547,-0.8558,-0.86,-0.8635,-0.8672,-0.8689,-0.8742,-0.8755,-0.8783,-0.8833,-0.8853,-0.8915,-0.8924,-0.8994,-0.8993,-0.8981,-0.8982,-0.9019,-0.9016,-0.9138,-0.9154,-0.9057,-0.9058,-0.9059,0,-0.8474,-0.8514,-0.8558,-0.8586,-0.8608,-0.8653,-0.8683,-0.8697,-0.8728,-0.8774,-0.8806,-0.8855,-0.8896,-0.8976,-0.9002,-0.9048,-0.9049,-0.9088,-0.9056,-0.9052,-0.9051,-0.9048,-0.9053,-0.9095,-0.9096,-0.9097,-0.9097,0,-0.8565,-0.8572,-0.8614,-0.8659,-0.8694,-0.873,-0.8765,-0.8788,-0.8808,-0.8842,-0.8893,-0.8924,-0.8986,-0.9035,-0.9083,-0.9106,-0.9106,-0.9107,-0.9118,-0.9117,-0.9108,-0.9114,-0.8998,-0.9105,-0.9104,-0.9103,-0.9103,-0.9103,-0.8629,-0.8665,-0.8701,-0.8747,-0.8775,-0.8807,-0.8844,-0.8865,-0.8907,-0.8958,-0.8964,-0.9018,-0.9055,-0.9119,-0.9143,-0.9186,-0.9176,-0.9193,-0.9197,-0.9201,-0.9204,-0.91,-0.9195,-0.9195,-0.9194,-0.9194,-0.9194,0,-0.8722,-0.8744,-0.8786,-0.8835,-0.8871,-0.8865,-0.8904,-0.8935,-0.8982,-0.9016,-0.9055,-0.9113,-0.916,-0.9189,-0.9236,-0.9265,-0.9266,-0.9277,-0.9276,-0.9281,-0.921,-0.9196,-0.9276,-0.9276,-0.9276,-0.9276,-0.9276,-0.9276,-0.8774,-0.8834,-0.8845,-0.8919,-0.8941,-0.8993,-0.9016,-0.9046,-0.9073,-0.9137,-0.9175,-0.9193,-0.9225,-0.9275,-0.9318,-0.9325,-0.9343,-0.9355,-0.9361,-0.9295,-0.9286,-0.9278,-0.9265,-0.9358,-0.9358,-0.9429,-0.943,-0.943]},{"header":{"parameterUnit":"m.s-1","parameterCategory":1,"la1":30.2991,"la2":30.254,"lo1":-89.0895,"lo2":-89.0444,"dy":0.0017,"dx":0.0017,"nx":28,"ny":28,"refTime":"2026-01-10T09:00:00:Z","depth":0,"parameterNumber":3,"parameterNumberName":"V-component_of_WINDS"},"data":[0,0,0,0,0,0,0,0,0,0,0,0,0,0,0,0,0,0,0,0,0,0,0,0,0,0,0,0,0,0,0,0,0,0,0,0,0,0,0,0,0,0,0,0,0,0,0,0,0,0,0,0,0,0,0,0,0,0,-7.2547,-7.2549,0,-7.2708,-7.271,-7.2712,-7.2632,-7.2627,-7.2623,-7.2619,-7.2781,-7.2789,-7.2797,0,0,0,0,0,0,0,0,0,0,0,0,0,-7.2167,-7.2174,-7.2547,-7.2549,-7.2551,-7.2708,-7.271,-7.2712,-7.2632,-7.2627,-7.2622,-7.2617,-7.2778,-7.2788,-7.2798,0,0,0,0,0,0,0,0,0,0,0,0,0,-7.233,-7.2176,-7.2547,-7.253,-7.253,-7.2707,-7.271,-7.2713,-7.2633,-7.2627,-7.2621,-7.2615,-7.2775,-7.2787,-7.2799,-7.3001,0,0,-7.2837,-7.2842,0,0,0,0,0,0,0,0,-7.2321,-7.2344,-7.2531,-7.2532,-7.2532,-7.2643,-7.2635,-7.2809,-7.2635,-7.2594,-7.2619,-7.2612,-7.274,-7.2755,-7.2799,-7.3008,-7.3015,-7.2838,-7.2845,-7.2851,-7.2854,0,0,0,0,0,0,0,-7.231,-7.2337,-7.261,-7.2533,-7.2534,-7.2513,-7.253,-7.2668,-7.27,-7.2597,-7.2592,-7.2612,-7.2739,-7.2787,-7.2802,-7.3018,-7.2838,-7.2848,-7.2856,-7.2861,-7.34,-7.3407,0,0,0,0,0,0,-7.23,-7.2328,-7.2605,-7.2615,-7.2409,-7.2525,-7.2544,-7.2614,-7.2699,-7.2705,-7.2617,-7.2608,-7.2769,-7.2788,-7.2807,-7.3049,-7.2851,-7.2862,-7.2869,-7.3393,-7.3402,-7.3409,0,0,0,0,0,0,-7.2292,-7.2325,-7.2599,-7.247,-7.2504,-7.2539,-7.2618,-7.262,-7.2668,-7.2714,-7.2719,-7.2661,-7.2765,-7.279,-7.2953,-7.3054,-7.2868,-7.2879,-7.3385,-7.3396,-7.3405,-7.3534,0,0,0,0,0,0,-7.2281,-7.2323,-7.2401,-7.2473,-7.2511,-7.2744,-7.2624,-7.2628,-7.269,-7.2679,-7.2756,-7.2762,-7.2762,-7.2936,-7.2966,-7.3067,-7.2888,-7.3376,-7.339,-7.3402,-7.3521,-7.3548,-7.357,0,0,0,0,0,-7.2268,-7.243,-7.2405,-7.2439,-7.2609,-7.275,-7.2771,-7.2769,-7.2698,-7.2777,-7.2806,-7.276,-7.3038,-7.2953,-7.2986,-7.3093,-7.337,-7.3386,-7.3401,-7.351,-7.3543,-7.357,0,0,0,0,0,0,-7.2368,-7.2439,-7.2412,-7.2603,-7.2671,-7.2736,-7.2835,-7.2803,-7.2892,-7.2878,-7.2869,-7.2887,-7.3057,-7.3091,-7.2996,-7.3292,-7.3193,-7.3216,-7.3264,-7.3295,-7.3319,-7.3308,-7.2899,0,0,0,0,0,-7.2412,-7.2522,-7.2577,-7.274,-7.2776,-7.28,-7.2861,-7.2853,-7.2923,-7.2951,-7.2992,-7.3061,-7.3163,-7.3231,-7.3328,-7.3525,-7.354,-7.3615,-7.3639,-7.3659,-7.368,-7.3786,-7.382,-7.346,-7.346,-7.346,0,0,-7.2505,-7.2557,-7.2626,-7.2761,-7.2813,-7.2926,-7.2824,-7.2948,-7.3031,-7.2969,-7.3126,-7.3159,-7.3235,-7.3416,-7.3498,-7.345,-7.3782,-7.3679,-7.3695,-7.3704,-7.3806,-7.384,-7.387,-7.3471,-7.3469,-7.3467,0,0,-7.2731,-7.2782,-7.2923,-7.2977,-7.3057,-7.3072,-7.3106,-7.3176,-7.3196,-7.3354,-7.331,-7.3407,-7.3585,-7.3641,-7.3692,-7.3939,-7.39,-7.3971,-7.41,-7.4204,-7.4232,-7.4257,-7.4345,-7.4377,-7.399,-7.3991,-7.3991,0,-7.2835,-7.3005,-7.2999,-7.3127,-7.3187,-7.3137,-7.3279,-7.3331,-7.3439,-7.3481,-7.3425,-7.3647,-7.3694,-7.3888,-7.3948,-7.3992,-7.4029,-7.3962,-7.4229,-7.4254,-7.4277,-7.4361,-7.4394,-7.3999,-7.3998,-7.3997,-7.3996,0,-7.3129,-7.3247,-7.3351,-7.3458,-7.3529,-7.3664,-7.3677,-7.375,-7.3736,-7.3756,-7.3917,-7.3972,-7.4079,-7.4124,-7.4111,-7.4317,-7.4284,-7.4229,-7.4129,-7.432,-7.4398,-7.443,-7.4011,-7.4008,-7.4005,-7.4003,0,0,-7.3424,-7.3525,-7.3564,-7.3611,-7.3696,-7.3786,-7.3918,-7.4024,-7.4086,-7.4162,-7.4271,-7.4422,-7.4372,-7.443,-7.4422,-7.4514,-7.4706,-7.4447,-7.4449,-7.4494,-7.4936,-7.4977,-7.5015,-7.468,-7.4686,-7.4691,-7.4929,0,-7.3656,-7.3888,-7.3886,-7.41,-7.4208,-7.4162,-7.4276,-7.434,-7.4362,-7.4456,-7.448,-7.4587,-7.4512,-7.4547,-7.4636,-7.4664,-7.4795,-7.4647,-7.4781,-7.4786,-7.4765,-7.5056,-7.51,-7.5322,-7.496,-7.4965,-7.4969,0,-7.3959,-7.4046,-7.4271,-7.4339,-7.4384,-7.4488,-7.4584,-7.4675,-7.4746,-7.4755,-7.4821,-7.4799,-7.4931,-7.4827,-7.5009,-7.4908,-7.4963,-7.4985,-7.4993,-7.5006,-7.489,-7.5077,-7.5393,-7.5427,-7.5017,-7.5014,-7.501,0,-7.4152,-7.4324,-7.4481,-7.4523,-7.4607,-7.4681,-7.4719,-7.4783,-7.4847,-7.4931,-7.4972,-7.507,-7.5124,-7.5199,-7.5204,-7.5128,-7.5387,-7.5283,-7.5398,-7.5398,-7.5456,-7.5452,-7.5786,-7.549,-7.549,-7.5489,-7.5488,0,-7.4412,-7.4551,-7.4569,-7.4666,-7.482,-7.4816,-7.4969,-7.5,-7.5058,-7.5159,-7.5124,-7.5219,-7.5219,-7.5315,-7.5319,-7.5469,-7.5493,-7.5504,-7.5504,-7.5508,-7.5507,-7.5544,-7.5529,-7.5498,-7.5496,-7.5494,-7.5493,0,-7.4654,-7.4671,-7.4839,-7.4905,-7.4925,-7.5036,-7.5092,-7.5183,-7.5201,-7.533,-7.5359,-7.5388,-7.55,-7.5512,-7.5642,-7.5644,-7.5825,-7.5808,-7.5802,-7.58,-7.5914,-7.5904,-7.6284,-7.6333,-7.6005,-7.6009,-7.6011,0,-7.4819,-7.4926,-7.5003,-7.5069,-7.5111,-7.5218,-7.5283,-7.5282,-7.5351,-7.544,-7.552,-7.5629,-7.5716,-7.5897,-7.5928,-7.6027,-7.6012,-7.6139,-7.6027,-7.6028,-7.6015,-7.6009,-7.6019,-7.6161,-7.6164,-7.6167,-7.617,0,-7.5111,-7.5114,-7.521,-7.531,-7.5388,-7.5466,-7.5539,-7.5594,-7.5603,-7.5682,-7.5797,-7.5864,-7.5997,-7.6105,-7.6202,-7.624,-7.6207,-7.6204,-7.6236,-7.6242,-7.6235,-7.6241,-7.5862,-7.6196,-7.6193,-7.6191,-7.619,-7.6189,-7.532,-7.5412,-7.5482,-7.5589,-7.5644,-7.5713,-7.5802,-7.5832,-7.5928,-7.6038,-7.6031,-7.6157,-7.6224,-7.6352,-7.6396,-7.6494,-7.6452,-7.6498,-7.651,-7.6522,-7.6534,-7.6219,-7.6512,-7.6511,-7.651,-7.651,-7.6509,0,-7.561,-7.5652,-7.5752,-7.5855,-7.594,-7.5902,-7.598,-7.6053,-7.6165,-7.6231,-7.6318,-7.6449,-7.6554,-7.6594,-7.6696,-7.6766,-7.6754,-7.6793,-7.6788,-7.6797,-7.6565,-7.6528,-7.6802,-7.6802,-7.6802,-7.6802,-7.6802,-7.6801,-7.5771,-7.5926,-7.5937,-7.6118,-7.6158,-7.6283,-7.6331,-7.6394,-7.6447,-7.6596,-7.6683,-7.6709,-7.6764,-7.6869,-7.6963,-7.6972,-7.7011,-7.7058,-7.706,-7.6843,-7.6814,-7.6785,-7.675,-7.7066,-7.7067,-7.7284,-7.7286,-7.7287]}]]